Location: ??????
(56.0120°N, 39.1740°E)
Time: 19:44:47
(UTC+00:00)

Cosmos 614 Rocket - Pass Details

Date: 14 April 2026
Orbit: 728 x 757 km, 74.1° (Epoch: 19 May)

Event Time Altitude Azimuth Distance (km) Brightness Sun altitude
Rises 17:51:31 0° 331° (NNW) 3,225 8.6 -11.1°
Reaches altitude 10° 17:53:54 10° 333° (NNW) 2,293 7.6 -11.4°
Maximum altitude 17:59:07 79° 61° (ENE) 772 4.0 -12.0°
Enters shadow 18:03:14 16° 147° (SSE) 1,872 5.4 -12.4°
